Meteopurmerend
purmerend
Purmerend - Baaienwijk



My webcam  My webcam


Onweer radar Meer informatie blitzortung!


Regen radar Meer informatie rain snow radar


Bezoek onze andere website:

CandyAppleRed WebdesignWebdesign Purmerend Candy Apple Red

MeteopurmerendBlog

Template documentation
and downloads



We konden geen weer-waarchuwingen ophalen. Ga rechtstreeks naar de Meteoalarm site : www.meteoalarm.eu en controleer daar .

15 daagse weersverwachting Helsinki (FI)

  • Overzicht
  • Per uur
  • 15 dagen
  • Extra
  • Vergelijk
  • Kaarten
  • Dagkaart
  • Meer »
  • Info
  • Statistieken
  • Directe link
    Temp 6h Neerslag Wind  
 05:37     21:14    Daglengte: 15:37 Morgen
03:00
16°
 
2
09:00
19°
 
3
15:00
23°
 
5
21:00
21°
 
4
 05:39     21:11    Daglengte: 15:32 Dinsdag 16 Aug
03:00
18°
 
3
09:00
21°
 
3
15:00
25°
 
5
21:00
21°
 
4
 05:42     21:08    Daglengte: 15:26 Woensdag 17 Aug
03:00
20°
 
3
09:00
21°
 
3
15:00
23°
 
2
Locatie info
Region: Uusimaa
Latitude: 60.1712°N
Longitude: 24.9327°E
26 masl
Postcode: 00100
Temp/Neerslag /Baro Onweer/Dauwpunt
    Temp Baro 1h Neerslag Dauwpunt Wind UV Bewolking  
 05:34     21:17    Daglengte: 15:43 Vandaag
22:00
17°
1019.6 hPa   13.5°
2
Windvlaag: 1.3 m/s
4%
23:00
17°
1019.4 hPa   13.9°
2
Windvlaag: 1 m/s
4%
 05:37     21:14    Daglengte: 15:37 Morgen
00:00
16°
1019.3 hPa   14.3°
2
Windvlaag: 0.8 m/s
6%
01:00
16°
1019.2 hPa   14.6°
2
Windvlaag: 0.4 m/s
6%
02:00
16°
1019.0 hPa   14.8°
2
Windvlaag: 0.4 m/s
6%
03:00
16°
1018.9 hPa   14.9°
2
Windvlaag: 0.1 m/s
7%
04:00
15°
1018.9 hPa   15.0°
2
Windvlaag: 0.2 m/s
12%
05:00
15°
1018.9 hPa   14.9°
2
Windvlaag: -0.4 m/s
11%
06:00
15°
1018.7 hPa   14.9°
2
Windvlaag: -0.8 m/s
11%
07:00
16°
1018.6 hPa   15.6°
3
Windvlaag: -0.6 m/s
21%
08:00
18°
1018.5 hPa   16.8°
3
Windvlaag: 0.2 m/s
38%
09:00
19°
1018.5 hPa   17.2°
3
Windvlaag: 0.8 m/s
31%
10:00
20°
1018.5 hPa   16.8°
3
Windvlaag: 1.4 m/s
42%
11:00
21°
1018.7 hPa   16.6°
4
Windvlaag: 1.8 m/s
36%
12:00
22°
1018.6 hPa   16.4°
4
Windvlaag: 1.9 m/s
51%
13:00
23°
1018.5 hPa   16.3°
5
Windvlaag: 2.3 m/s
32%
14:00
23°
1018.3 hPa   16.2°
5
Windvlaag: 2.4 m/s
43%
15:00
23°
1018.0 hPa   15.9°
5
Windvlaag: 2.1 m/s
20%
16:00
24°
1017.7 hPa   15.5°
5
Windvlaag: 2.2 m/s
48%
17:00
23°
1017.4 hPa   15.4°
5
Windvlaag: 2.3 m/s
54%
18:00
23°
1016.9 hPa   15.1°
5
Windvlaag: 2.1 m/s
15%
19:00
23°
1016.5 hPa   15.0°
5
Windvlaag: 2.2 m/s
26%
20:00
22°
1016.4 hPa   15.2°
4
Windvlaag: 1.8 m/s
30%
21:00
21°
1016.5 hPa   15.4°
4
Windvlaag: 1.8 m/s
35%
22:00
20°
1016.7 hPa   15.5°
4
Windvlaag: 1.7 m/s
45%
23:00
20°
1016.7 hPa   15.6°
4
Windvlaag: 1.3 m/s
37%
 05:39     21:11    Daglengte: 15:32 Dinsdag 16 Aug
00:00
19°
1016.7 hPa   16.0°
3
Windvlaag: 1.1 m/s
51%
01:00
19°
1016.7 hPa   16.0°
3
Windvlaag: 0.8 m/s
62%
02:00
19°
1016.8 hPa   16.1°
3
Windvlaag: 0.3 m/s
60%
03:00
18°
1016.8 hPa
11%
17.1°
3
Windvlaag: -1.2 m/s
65%
04:00
18°
1016.6 hPa
11%
17.1°
3
Windvlaag: -1.4 m/s
60%
05:00
18°
1016.4 hPa
11%
17.4°
2
Windvlaag: -0.9 m/s
27%
06:00
18°
1016.3 hPa
11%
17.3°
2
Windvlaag: -0.6 m/s
19%
07:00
18°
1016.2 hPa
11%
17.5°
3
Windvlaag: 0.1 m/s
24%
08:00
20°
1016.3 hPa
11%
18.0°
3
Windvlaag: 0.3 m/s
32%
09:00
21°
1016.3 hPa
11%
18.4°
3
Windvlaag: 0.6 m/s
46%
10:00
22°
1016.3 hPa
11%
18.2°
3
Windvlaag: 0.5 m/s
38%
11:00
23°
1016.5 hPa
11%
16.9°
4
Windvlaag: 0.8 m/s
55%
12:00
24°
1016.5 hPa
11%
16.7°
5
Windvlaag: 2 m/s
53%
13:00
24°
1016.4 hPa
11%
16.1°
5
Windvlaag: 2.4 m/s
49%
14:00
24°
1016.2 hPa
11%
16.2°
5
Windvlaag: 2.4 m/s
15%
15:00
25°
1016.0 hPa
11%
15.9°
5
Windvlaag: 2.8 m/s
13%
16:00
24°
1015.8 hPa
11%
15.7°
5
Windvlaag: 2.9 m/s
43%
17:00
24°
1015.5 hPa
11%
15.7°
5
Windvlaag: 2.8 m/s
42%
18:00
24°
1015.6 hPa
17%
14.8°
5
Windvlaag: 3.2 m/s
21%
19:00
24°
1015.2 hPa
17%
14.9°
4
Windvlaag: 2.5 m/s
25%
20:00
23°
1014.9 hPa
17%
15.7°
4
Windvlaag: 2.4 m/s
28%
21:00
21°
1014.9 hPa
17%
15.9°
4
Windvlaag: 2.2 m/s
33%
22:00
20°
1014.8 hPa
17%
17.2°
3
Windvlaag: 1.8 m/s
38%
23:00
20°
1014.9 hPa
17%
18.5°
3
Windvlaag: 1 m/s
23%
 05:42     21:08    Daglengte: 15:26 Woensdag 17 Aug
00:00
19°
1014.9 hPa
17%
18.4°
2
Windvlaag: -0.5 m/s
60%
01:00
19°
1014.8 hPa
17%
18.2°
3
Windvlaag: 0.2 m/s
69%
02:00
19°
1014.6 hPa
17%
17.9°
2
Windvlaag: 0.3 m/s
79%
03:00
20°
1014.6 hPa
17%
16.4°
3
Windvlaag: 1.4 m/s
77%
04:00
20°
1014.5 hPa
18%
16.8°
3
Windvlaag: 1.4 m/s
77%
05:00
19°
1013.9 hPa
21%
17.9°
2
Windvlaag: -0.4 m/s
71%
06:00
19°
1013.8 hPa
21%
16.9°
2
Windvlaag: -0.4 m/s
63%
07:00
20°
1013.7 hPa
21%
16.1°
2
Windvlaag: 0 m/s
66%
08:00
21°
1013.6 hPa
21%
15.9°
3
Windvlaag: 0.2 m/s
65%
09:00
21°
1013.9 hPa
24%
16.6°
3
Windvlaag: 2 m/s
67%
10:00
22°
1014.3 hPa
90%
17.5°
3
Windvlaag: 2.7 m/s
80%
11:00
22°
1014.5 hPa
84%
17.0°
3
Windvlaag: 3.8 m/s
79%
12:00
24°
1014.6 hPa
44%
17.2°
2
Windvlaag: 3.9 m/s
89%
13:00
23°
1013.9 hPa
23%
16.1°
3
Windvlaag: 8.9 m/s
92%
14:00
23°
1014.0 hPa
21%
15.9°
3
Windvlaag: 8.1 m/s
92%
15:00
23°
1014.1 hPa
21%
16.1°
2
Windvlaag: 7.5 m/s
84%
16:00
24°
1014.1 hPa
21%
16.4°
2
Windvlaag: 8.1 m/s
74%
17:00
24°
1014.0 hPa
21%
16.3°
2
Windvlaag: 6.3 m/s
68%
18:00
23°
1013.6 hPa
21%
16.6°
2
Windvlaag: 4.7 m/s
37%
19:00
23°
1013.4 hPa
21%
17.3°
2
Windvlaag: 3.7 m/s
71%
20:00
22°
1013.2 hPa
21%
17.9°
2
Windvlaag: 2.3 m/s
63%
21:00
21°
1013.5 hPa
27%
18.3°
2
Windvlaag: 4.3 m/s
37%
Temp/Neerslag /Baro Onweer/Dauwpunt
    Temp Baro Neerslag Dauwpunt Wind Bewolking  
 05:37     21:14    Daglengte: 15:37 Morgen
00:00
16°
1019.3 hPa   14.3°
2
6%
03:00
16°
1018.9 hPa   14.9°
2
7%
06:00
15°
1018.7 hPa   14.9°
2
11%
09:00
19°
1018.5 hPa   17.2°
3
31%
12:00
22°
1018.6 hPa   16.4°
4
51%
15:00
23°
1018.0 hPa   15.9°
5
20%
18:00
23°
1016.9 hPa   15.1°
5
15%
21:00
21°
1016.5 hPa   15.4°
4
35%
 05:39     21:11    Daglengte: 15:32 Dinsdag 16 Aug
00:00
19°
1016.7 hPa   16.0°
3
51%
03:00
18°
1016.8 hPa   17.1°
3
65%
06:00
18°
1016.3 hPa   17.3°
2
19%
09:00
21°
1016.3 hPa   18.4°
3
46%
12:00
24°
1016.5 hPa   16.7°
5
53%
15:00
25°
1016.0 hPa   15.9°
5
13%
18:00
24°
1015.6 hPa   14.8°
5
21%
21:00
21°
1014.9 hPa   15.9°
4
33%
 05:42     21:08    Daglengte: 15:26 Woensdag 17 Aug
00:00
19°
1014.9 hPa   18.4°
2
60%
03:00
20°
1014.6 hPa   16.4°
3
77%
06:00
19°
1013.8 hPa   16.9°
2
63%
09:00
21°
1013.9 hPa   16.6°
3
67%
12:00
24°
1014.6 hPa   17.2°
2
89%
15:00
23°
1014.1 hPa   16.1°
2
84%
18:00
23°
1013.6 hPa   16.6°
2
37%
21:00
21°
1013.5 hPa   18.3°
2
37%
 05:44     21:05    Daglengte: 15:21 Donderdag 18 Aug
00:00
20°
1015.8 hPa 21.7 mm 17.1°
4
0%
03:00
19°
1015.8 hPa 21.7 mm 16.7°
3
0%
06:00
18°
1015.6 hPa 21.7 mm 16.6°
3
0%
09:00
21°
1016.4 hPa 21.7 mm 15.9°
2
0%
12:00
23°
1016.5 hPa 21.7 mm 13.5°
2
0%
15:00
24°
1016.7 hPa 21.7 mm 12.9°
3
0%
18:00
24°
1016.5 hPa 21.7 mm 14.2°
3
1%
21:00
20°
1016.4 hPa 21.7 mm 15.6°
3
1%
 05:46     21:03    Daglengte: 15:17 Vrijdag 19 Aug
00:00
19°
1016.6 hPa 21.7 mm 15.6°
3
1%
03:00
19°
1016.5 hPa 21.7 mm 16.5°
2
1%
06:00
19°
1016.7 hPa 21.7 mm 16.4°
3
0%
09:00
22°
1016.8 hPa 22.1 mm 15.9°
3
0%
12:00
24°
1017.2 hPa 22.2 mm 14.8°
4
0%
15:00
24°
1016.7 hPa 22.2 mm 14.0°
5
0%
18:00
24°
1016.0 hPa 22.2 mm 14.6°
5
0%
21:00
21°
1015.5 hPa 22.2 mm 14.8°
4
0%
 05:49     21:00    Daglengte: 15:11 Zaterdag 20 Aug
00:00
19°
1015.1 hPa 22.2 mm 15.9°
4
0%
03:00
19°
1015.0 hPa 22.2 mm 15.4°
3
0%
06:00
18°
1014.5 hPa 22.2 mm 16.0°
4
0%
09:00
20°
1013.7 hPa 22.2 mm 15.5°
5
0%
12:00
22°
1013.4 hPa 22.2 mm 15.4°
6
0%
15:00
24°
1012.4 hPa 22.2 mm 15.2°
7
0%
18:00
23°
1010.9 hPa 22.2 mm 15.5°
7
0%
21:00
21°
1010.0 hPa 22.2 mm 15.5°
6
0%
 05:51     20:57    Daglengte: 15:06 Zondag 21 Aug
00:00
21°
1008.5 hPa 22.2 mm 16.4°
5
0%
03:00
20°
1007.2 hPa 22.2 mm 16.6°
6
0%
06:00
19°
1005.1 hPa 22.2 mm 16.7°
6
0%
09:00
19°
1004.8 hPa 24.3 mm 18.0°
5
1%
12:00
21°
1005.1 hPa 25.2 mm 18.0°
3
1%
15:00
22°
1004.8 hPa 25.3 mm 18.0°
5
1%
18:00
20°
1004.4 hPa 25.6 mm 17.4°
3
1%
21:00
18°
1004.1 hPa 51.7 mm 16.8°
5
1%
 05:54     20:54    Daglengte: 15:00 Maandag 22 Aug
03:00
17°
1004.6 hPa 52.6 mm 15.6°
4
1%
09:00
17°
1008.3 hPa 53.0 mm 13.9°
5
1%
15:00
21°
1012.3 hPa 53.0 mm 8.9°
5
0%
21:00
17°
1014.7 hPa 53.0 mm 9.2°
4
1%
 05:56     20:51    Daglengte: 14:55 Dinsdag 23 Aug
03:00
14°
1016.3 hPa 53.0 mm 10.1°
1
1%
09:00
17°
1016.1 hPa 53.0 mm 11.8°
4
1%
15:00
21°
1014.5 hPa 53.0 mm 11.4°
5
1%
21:00
20°
1013.2 hPa 53.0 mm 13.8°
5
1%
 05:58     20:48    Daglengte: 14:50 Woensdag 24 Aug
03:00
18°
1012.8 hPa 53.1 mm 13.8°
5
1%
09:00
18°
1012.0 hPa 55.4 mm 15.8°
5
1%
15:00
21°
1011.6 hPa 56.0 mm 13.2°
5
0%
21:00
17°
1016.1 hPa 0.4 mm 12.6°
2
40%
 06:01     20:45    Daglengte: 14:44 Donderdag 25 Aug
03:00
15°
1016.7 hPa 0.1 mm 12.3°
1
41%
09:00
17°
1016.6 hPa 0.6 mm 12.0°
1
43%
15:00
20°
1016.6 hPa 0.4 mm 11.7°
3
35%
21:00
17°
1016.9 hPa 0.3 mm 12.1°
2
34%
 06:03     20:42    Daglengte: 14:39 Vrijdag 26 Aug
03:00
15°
1017.2 hPa 0.6 mm 12.1°
1
39%
09:00
16°
1017.5 hPa 0.7 mm 11.7°
2
37%
15:00
19°
1017.9 hPa 0.4 mm 11.4°
2
40%
21:00
17°
1018.0 hPa 0.3 mm 11.8°
2
51%
 06:06     20:39    Daglengte: 14:33 Zaterdag 27 Aug
03:00
15°
1018.4 hPa 0.2 mm 11.6°
1
60%
09:00
16°
1018.2 hPa 0.1 mm 11.4°
1
55%
15:00
18°
1017.6 hPa 0.2 mm 11.1°
1
63%
21:00
16°
1017.0 hPa 0.6 mm 11.8°
1
65%
 06:08     20:36    Daglengte: 14:28 Zondag 28 Aug
03:00
14°
1017.0 hPa 0.2 mm 11.4°
1
56%
09:00
15°
1016.7 hPa 0.4 mm 11.1°
1
56%
15:00
18°
1016.4 hPa 0.6 mm 11.1°
0
54%
21:00
16°
1016.3 hPa 0.8 mm 11.2°
1
49%
 06:10     20:33    Daglengte: 14:23 Maandag 29 Aug
03:00
14°
1016.7 hPa 0.2 mm 10.7°
1
32%
09:00
15°
1016.9 hPa   10.1°
1
38%
15:00
18°
1016.8 hPa 0.1 mm 9.8°
1
39%
21:00
15°
1016.8 hPa 0.5 mm 10.3°
1
45%
  CAPE Lifted Index Hail Supercell Tornado SRH 3km CL BTM PRES CL TOP PRES Swiss DWD icon SMHI TS
 05:34     21:17    Daglengte: 15:43 Vandaag
22:00 0 J/kg 4.0 K 0 % 0 % 0 % 0 m²/s² 0 0 7.57 0
23:00 0 J/kg 4.1 K 0 % 0 % 0 % 0 m²/s² 0 0 7.67 0
 05:37     21:14    Daglengte: 15:37 Morgen
00:00 0 J/kg 2.7 K 0 % 0 % 0 % 0 m²/s² 0 0 6.15 1
01:00 0 J/kg 1.3 K 0 % 0 % 0 % 0 m²/s² 0 0 4.75 1
02:00 0 J/kg 0.7 K 0 % 0 % 0 % 0 m²/s² 0 0 4.27 1
03:00 0 J/kg 1.2 K 0 % 0 % 0 % 0 m²/s² 0 0 4.65 1
04:00 0 J/kg 0.9 K 0 % 0 % 0 % 0 m²/s² 0 0 4.35 1
05:00 0 J/kg 0.1 K 0 % 0 % 0 % 0 m²/s² 0 0 3.46 1
06:00 1 J/kg -0.2 K 0 % 0 % 0 % 0 m²/s² 0 0 3.16 1
07:00 1 J/kg -0.1 K 0 % 0 % 0 % 0 m²/s² 0 0 3.26 3
08:00 1 J/kg -0.2 K 0 % 0 % 0 % 0 m²/s² 0 0 3.16 3
09:00 0 J/kg -0.6 K 0 % 0 % 0 % 0 m²/s² 0 0 2.76 2
10:00 71 J/kg -1.0 K 0 % 0 % 0 % 0 m²/s² 0 0 2.09 3
11:00 123 J/kg -1.2 K 0 % 0 % 0 % 0 m²/s² 0 0 1.56 3
12:00 176 J/kg -1.4 K 0 % 0 % 0 % 0 m²/s² 0 0 1.45 3
13:00 281 J/kg -1.8 K 0 % 0 % 0 % 0 m²/s² 0 0 1.11 3
14:00 276 J/kg -1.7 K 0 % 0 % 0 % 0 m²/s² 0 0 1.57 3
15:00 205 J/kg -1.5 K 0 % 0 % 0 % 0 m²/s² 0 0 2.97 1
16:00 193 J/kg -1.6 K 0 % 0 % 0 % 0 m²/s² 0 0 4.55 3
17:00 163 J/kg -1.3 K 0 % 0 % 0 % 0 m²/s² 0 0 4.07 3
18:00 101 J/kg -1.0 K 0 % 0 % 0 % 0 m²/s² 0 0 3.14 1
19:00 95 J/kg -0.9 K 0 % 0 % 0 % 0 m²/s² 0 0 2.37 2
20:00 48 J/kg -1.2 K 0 % 0 % 0 % 0 m²/s² 0 0 1.11 3
21:00 9 J/kg -2.0 K 0 % 0 % 0 % 0 m²/s² 0 0 -0.32 3
22:00 44 J/kg -2.7 K 0 % 0 % 0 % 0 m²/s² 0 0 -1.2 3
23:00 108 J/kg -2.9 K 0 % 0 % 0 % 0 m²/s² 0 0 -1.52 2
 05:39     21:11    Daglengte: 15:32 Dinsdag 16 Aug
00:00 164 J/kg -3.5 K 0 % 0 % 0 % 0 m²/s² 0 0 -2.3 2
01:00 200 J/kg -4.3 K 0 % 0 % 0 % 0 m²/s² 0 0 -3.04 3
02:00 75 J/kg -4.6 K 0 % 0 % 0 % 0 m²/s² 0 0 -2.56 3
03:00 122 J/kg -4.3 K 0 % 0 % 0 % 0 m²/s² 0 0 -2.5 3
04:00 19 J/kg -4.6 K 0 % 0 % 0 % 0 m²/s² 0 0 -2.8 3
05:00 29 J/kg -4.5 K 0 % 0 % 0 % 0 m²/s² 0 0 -2.91 3
06:00 180 J/kg -4.3 K 0 % 0 % 0 % 0 m²/s² 0 0 -2.86 2
07:00 148 J/kg -4.0 K 0 % 0 % 0 % 0 m²/s² 0 0 -2.47 2
08:00 275 J/kg -3.9 K 0 % 0 % 0 % 0 m²/s² 0 0 -2.31 3
09:00 467 J/kg -2.8 K 0 % 0 % 0 % 0 m²/s² 0 0 -1.18 2
10:00 617 J/kg -2.8 K 0 % 0 % 0 % 0 m²/s² 0 0 -1.42 3
11:00 555 J/kg -2.5 K 0 % 0 % 0 % 0 m²/s² 0 0 -0.94 3
12:00 413 J/kg -2.0 K 0 % 0 % 0 % 0 m²/s² 0 0 -0.26 3
13:00 380 J/kg -1.6 K 0 % 0 % 0 % 0 m²/s² 0 0 0.38 3
14:00 264 J/kg -1.4 K 0 % 0 % 0 % 0 m²/s² 0 0 1 0
15:00 336 J/kg -1.7 K 0 % 0 % 0 % 0 m²/s² 0 0 0.79 0
16:00 461 J/kg -2.2 K 0 % 0 % 0 % 0 m²/s² 0 0 0.35 3
17:00 503 J/kg -2.3 K 0 % 0 % 0 % 0 m²/s² 0 0 0.34 3
18:00 504 J/kg -2.3 K 0 % 0 % 0 % 0 m²/s² 0 0 0.34 0
19:00 308 J/kg -1.8 K 0 % 0 % 0 % 0 m²/s² 0 0 0.99 0
20:00 226 J/kg -1.8 K 0 % 0 % 0 % 0 m²/s² 0 0 1.08 0
21:00 94 J/kg -2.1 K 0 % 0 % 0 % 0 m²/s² 0 0 0.69 1
22:00 209 J/kg -2.4 K 0 % 0 % 0 % 0 m²/s² 0 0 0.48 3
23:00 363 J/kg -2.6 K 0 % 0 % 0 % 0 m²/s² 0 0 0.04 2
 05:42     21:08    Daglengte: 15:26 Woensdag 17 Aug
00:00 396 J/kg -3.3 K 0 % 0 % 0 % 0 m²/s² 0 0 -0.9 3
01:00 352 J/kg -3.9 K 0 % 0 % 0 % 0 m²/s² 0 0 -1.77 3
02:00 258 J/kg -3.4 K 0 % 0 % 0 % 0 m²/s² 0 0 -1.9 3
03:00 336 J/kg -2.2 K 0 % 0 % 0 % 0 m²/s² 0 0 -1.09 2
04:00 147 J/kg -1.1 K 0 % 0 % 0 % 0 m²/s² 0 0 -0.89 3
05:00 141 J/kg -1.3 K 0 % 0 % 0 % 0 m²/s² 0 0 -1.27 2
06:00 194 J/kg -1.8 K 0 % 0 % 0 % 0 m²/s² 0 0 -1.77 2
07:00 221 J/kg -1.7 K 0 % 0 % 0 % 0 m²/s² 0 0 -1.7 3
08:00 343 J/kg -1.8 K 0 % 0 % 0 % 0 m²/s² 0 0 -1.77 3
09:00 169 J/kg -2.1 K 0 % 0 % 0 % 0 m²/s² 0 0 -1.89 3
10:00 71 J/kg -1.6 K 0 % 0 % 0 % 0 m²/s² 0 0 -1.51 3
11:00 252 J/kg -1.2 K 0 % 0 % 0 % 0 m²/s² 0 0 -0.93 3
12:00 137 J/kg -1.0 K 0 % 0 % 0 % 0 m²/s² 0 0 -0.52 3
13:00 123 J/kg -1.6 K 0 % 0 % 0 % 0 m²/s² 0 0 -1.06 3
14:00 209 J/kg -1.7 K 0 % 0 % 0 % 0 m²/s² 0 0 -0.98 3
15:00 392 J/kg -1.7 K 0 % 0 % 0 % 0 m²/s² 0 0 -0.53 3
16:00 443 J/kg -1.6 K 0 % 0 % 0 % 0 m²/s² 0 0 -0.43 3
17:00 409 J/kg -1.7 K 0 % 0 % 0 % 0 m²/s² 0 0 -0.41 2
18:00 334 J/kg -1.6 K 0 % 0 % 0 % 0 m²/s² 0 0 -0.37 2
19:00 324 J/kg -1.8 K 0 % 0 % 0 % 0 m²/s² 0 0 -0.3 2
20:00 270 J/kg -1.8 K 0 % 0 % 0 % 0 m²/s² 0 0 -0.24 2
21:00 171 J/kg -1.7 K 0 % 0 % 0 % 0 m²/s² 0 0 -0.14 2
Temp Baro Wind Neerslag
  EWN Forecast EWN WRFDA DWD ICON FMI HIRLAM MET Norway GFSWXSIM
 05:37     21:14    Daglengte: 15:37 Morgen
00:00 16.3° 1019.3 hPa 2.3 m/s 0.0 mm 15.9° 1018.5 hPa 2.8 m/s 0.0 mm 16.4° 1019.4 hPa 1.7 m/s -2.0 mm 15.2° 1019.3 hPa 2.2 m/s 0.0 mm 17.3° 1019.2 hPa 3.4 m/s
03:00 15.6° 1018.9 hPa 2.0 m/s 0.0 mm 15.2° 1018.4 hPa 2.9 m/s 0.0 mm 15.8° 1018.7 hPa 1.6 m/s 0.0 mm 13.4° 1019.1 hPa 1.8 m/s 0.0 mm 17.3° 1018.9 hPa 2.9 m/s
06:00 15.3° 1018.7 hPa 2.4 m/s 0.0 mm 15.9° 1017.9 hPa 3.0 m/s 0.0 mm 15.5° 1019.1 hPa 1.6 m/s 0.0 mm 12.6° 1018.8 hPa 2.3 m/s 0.0 mm 16.9° 1018.4 hPa 2.6 m/s
09:00 19.2° 1018.5 hPa 2.9 m/s 0.0 mm 20.9° 1017.7 hPa 2.8 m/s 0.0 mm 19.6° 1018.8 hPa 2.5 m/s 0.0 mm 17.8° 1018.5 hPa 2.7 m/s 0.0 mm 20.9° 1018.3 hPa 3.4 m/s
12:00 22.2° 1018.6 hPa 4.1 m/s 0.0 mm 24.1° 1017.9 hPa 3.4 m/s 0.0 mm 22.1° 1018.6 hPa 3.4 m/s 0.0 mm 22.2° 1018.3 hPa 4.2 m/s 0.0 mm 22.6° 1018.5 hPa 4.0 m/s
15:00 23.3° 1018.0 hPa 4.6 m/s 0.0 mm 25.2° 1017.3 hPa 4.6 m/s 0.0 mm 23.3° 1018.4 hPa 4.1 m/s 0.0 mm 23.2° 1017.6 hPa 4.4 m/s 0.0 mm 22.9° 1017.8 hPa 5.2 m/s
18:00 23.2° 1016.9 hPa 5.0 m/s 0.0 mm 24.0° 1016.4 hPa 4.5 m/s 0.0 mm 22.8° 1016.9 hPa 3.8 m/s 0.0 mm 23.4° 1016.6 hPa 5.1 m/s 0.0 mm 22.7° 1016.9 hPa 5.0 m/s
21:00 20.8° 1016.5 hPa 4.0 m/s 0.0 mm 21.0° 1016.2 hPa 3.3 m/s 0.0 mm 20.3° 1016.6 hPa 3.0 m/s 0.0 mm 20.7° 1015.7 hPa 4.2 m/s 0.0 mm 19.7° 1016.5 hPa 3.7 m/s
 05:39     21:11    Daglengte: 15:32 Dinsdag 16 Aug
00:00 19.2° 1016.7 hPa 3.2 m/s 0.0 mm 19.0° 1016.4 hPa 2.4 m/s 0.0 mm 19.0° 1016.9 hPa 2.2 m/s 0.0 mm 19.0° 1015.7 hPa 3.2 m/s 0.0 mm 18.9° 1017.0 hPa 1.8 m/s
03:00 18.4° 1016.8 hPa 2.5 m/s 0.0 mm 17.9° 1016.6 hPa 2.0 m/s 0.3 mm 18.4° 1017.1 hPa 1.5 m/s 0.0 mm 17.4° 1015.5 hPa 2.5 m/s 0.0 mm 18.0° 1016.9 hPa 2.1 m/s
06:00 18.1° 1016.3 hPa 2.4 m/s 0.0 mm 19.2° 1016.2 hPa 2.5 m/s 0.4 mm 18.0° 1016.6 hPa 1.6 m/s 0.0 mm 16.4° 1015.0 hPa 2.4 m/s 0.0 mm 18.3° 1016.1 hPa 2.9 m/s
09:00 20.6° 1016.3 hPa 3.0 m/s 0.0 mm 22.6° 1015.8 hPa 3.4 m/s 0.4 mm 21.0° 1016.6 hPa 2.1 m/s 0.0 mm 18.7° 1015.0 hPa 2.9 m/s 0.0 mm 20.4° 1016.4 hPa 2.7 m/s
12:00 23.7° 1016.5 hPa 4.7 m/s 0.0 mm 25.5° 1016.4 hPa 3.7 m/s 0.4 mm 23.6° 1016.9 hPa 3.4 m/s 0.0 mm 23.0° 1015.0 hPa 4.9 m/s 0.0 mm 23.3° 1016.7 hPa 3.3 m/s
15:00 24.7° 1016.0 hPa 4.7 m/s 0.0 mm 26.1° 1015.7 hPa 4.9 m/s 0.4 mm 24.7° 1016.3 hPa 4.0 m/s 0.0 mm 24.5° 1014.7 hPa 4.6 m/s 0.0 mm 24.3° 1016.3 hPa 4.4 m/s
18:00 24.1° 1015.6 hPa 4.8 m/s 0.0 mm 25.9° 1015.1 hPa 4.9 m/s 0.4 mm 23.8° 1015.6 hPa 3.3 m/s 0.0 mm 23.8° 1015.6 hPa 4.2 m/s
21:00 21.5° 1014.9 hPa 3.9 m/s 0.0 mm 22.1° 1014.4 hPa 3.8 m/s 0.4 mm 21.0° 1014.8 hPa 2.6 m/s 0.0 mm 20.2° 1015.2 hPa 3.9 m/s
 05:42     21:08    Daglengte: 15:26 Woensdag 17 Aug
00:00 19.4° 1014.9 hPa 2.4 m/s 0.0 mm 18.4° 1014.4 hPa 2.1 m/s 0.4 mm 19.4° 1014.9 hPa 1.9 m/s 0.0 mm 19.9° 1015.3 hPa 3.0 m/s
03:00 19.9° 1014.6 hPa 2.8 m/s 0.0 mm 20.9° 1014.7 hPa 4.1 m/s 0.4 mm 18.3° 1014.4 hPa 1.3 m/s 0.0 mm 19.1° 1015.5 hPa 4.7 m/s
06:00 19.3° 1013.8 hPa 2.1 m/s 0.0 mm 19.9° 1013.7 hPa 2.1 m/s 4.3 mm 18.4° 1013.5 hPa 1.1 m/s 0.0 mm 18.6° 1015.2 hPa 3.4 m/s
09:00 21.1° 1013.9 hPa 2.8 m/s 0.0 mm 22.3° 1014.0 hPa 5.3 m/s 6.0 mm 20.8° 1013.4 hPa 1.7 m/s 0.0 mm 20.0° 1016.3 hPa 3.0 m/s
12:00 23.5° 1014.6 hPa 1.9 m/s 0.0 mm 23.9° 1015.1 hPa 5.3 m/s 6.0 mm 21.8° 1013.9 hPa 1.3 m/s 0.0 mm 22.2° 1016.7 hPa 3.5 m/s
15:00 23.4° 1014.1 hPa 2.5 m/s 0.0 mm 25.0° 1015.3 hPa 4.7 m/s 6.0 mm 23.0° 1013.8 hPa 1.9 m/s 0.0 mm 23.3° 1016.5 hPa 4.9 m/s
18:00 23.2° 1013.6 hPa 2.1 m/s 0.0 mm 24.3° 1015.6 hPa 3.4 m/s 6.0 mm 22.9° 1013.2 hPa 1.8 m/s 0.0 mm 22.0° 1016.2 hPa 3.3 m/s
21:00 20.7° 1013.5 hPa 1.8 m/s 0.0 mm 20.4° 1015.4 hPa 2.0 m/s 6.0 mm 20.8° 1013.0 hPa 1.7 m/s 0.0 mm 20.0° 1015.5 hPa 4.0 m/s
 05:44     21:05    Daglengte: 15:21 Donderdag 18 Aug
00:00 19.5° 1015.8 hPa 4.0 m/s 21.7 mm 19.5° 1015.8 hPa 4.0 m/s 21.7 mm
03:00 18.5° 1015.8 hPa 2.7 m/s 21.7 mm 18.5° 1015.8 hPa 2.7 m/s 21.7 mm
06:00 17.9° 1015.6 hPa 2.6 m/s 21.7 mm 17.9° 1015.6 hPa 2.6 m/s 21.7 mm
09:00 20.8° 1016.4 hPa 2.4 m/s 21.7 mm 20.8° 1016.4 hPa 2.4 m/s 21.7 mm
12:00 23.2° 1016.5 hPa 2.4 m/s 21.7 mm 23.2° 1016.5 hPa 2.4 m/s 21.7 mm
15:00 24.3° 1016.7 hPa 2.6 m/s 21.7 mm 24.3° 1016.7 hPa 2.6 m/s 21.7 mm
18:00 23.6° 1016.5 hPa 2.8 m/s 21.7 mm 23.6° 1016.6 hPa 2.8 m/s 21.7 mm
21:00 19.9° 1016.4 hPa 2.8 m/s 21.7 mm 19.9° 1016.4 hPa 2.8 m/s 21.7 mm
 05:46     21:03    Daglengte: 15:17 Vrijdag 19 Aug
00:00 19.3° 1016.6 hPa 2.8 m/s 21.7 mm 19.3° 1016.6 hPa 2.8 m/s 21.7 mm
03:00 18.9° 1016.5 hPa 2.5 m/s 21.7 mm 18.9° 1016.5 hPa 2.5 m/s 21.7 mm
06:00 18.6° 1016.7 hPa 2.7 m/s 21.7 mm 18.6° 1016.7 hPa 2.7 m/s 21.7 mm
09:00 21.7° 1016.8 hPa 2.8 m/s 22.1 mm 21.7° 1016.8 hPa 2.8 m/s 22.1 mm
12:00 23.8° 1017.2 hPa 3.7 m/s 22.2 mm 23.8° 1017.2 hPa 3.7 m/s 22.2 mm
15:00 24.4° 1016.7 hPa 4.7 m/s 22.2 mm 24.4° 1016.7 hPa 4.7 m/s 22.2 mm
18:00 24.1° 1016.0 hPa 5.5 m/s 22.2 mm 24.1° 1016.0 hPa 5.5 m/s 22.2 mm
21:00 20.8° 1015.5 hPa 4.3 m/s 22.2 mm 20.8° 1015.5 hPa 4.3 m/s 22.2 mm
 05:49     21:00    Daglengte: 15:11 Zaterdag 20 Aug
00:00 19.4° 1015.1 hPa 3.5 m/s 22.2 mm 19.4° 1015.1 hPa 3.5 m/s 22.2 mm
03:00 18.9° 1015.0 hPa 3.4 m/s 22.2 mm 18.9° 1015.0 hPa 3.4 m/s 22.2 mm
06:00 17.8° 1014.5 hPa 3.6 m/s 22.2 mm 17.8° 1014.5 hPa 3.6 m/s 22.2 mm
09:00 20.5° 1013.7 hPa 5.0 m/s 22.2 mm 20.5° 1013.7 hPa 5.0 m/s 22.2 mm
12:00 22.2° 1013.4 hPa 5.6 m/s 22.2 mm 22.2° 1013.4 hPa 5.6 m/s 22.2 mm
15:00 23.8° 1012.4 hPa 6.8 m/s 22.2 mm 23.8° 1012.4 hPa 6.8 m/s 22.2 mm
18:00 23.4° 1010.9 hPa 6.8 m/s 22.2 mm 23.4° 1010.9 hPa 6.8 m/s 22.2 mm
21:00 21.0° 1010.0 hPa 5.8 m/s 22.2 mm 21.0° 1010.0 hPa 5.8 m/s 22.2 mm
 05:51     20:57    Daglengte: 15:06 Zondag 21 Aug
00:00 20.9° 1008.5 hPa 5.4 m/s 22.2 mm 20.9° 1008.5 hPa 5.4 m/s 22.2 mm
03:00 20.1° 1007.2 hPa 5.7 m/s 22.2 mm 20.1° 1007.2 hPa 5.7 m/s 22.2 mm
06:00 19.3° 1005.1 hPa 5.6 m/s 22.2 mm 19.3° 1005.1 hPa 5.6 m/s 22.2 mm
09:00 19.2° 1004.8 hPa 4.5 m/s 24.3 mm 19.2° 1004.8 hPa 4.5 m/s 24.3 mm
12:00 21.2° 1005.1 hPa 2.8 m/s 25.2 mm 21.2° 1005.1 hPa 2.8 m/s 25.2 mm
15:00 21.9° 1004.8 hPa 4.7 m/s 25.3 mm 21.9° 1004.8 hPa 4.7 m/s 25.3 mm
18:00 20.3° 1004.4 hPa 3.4 m/s 25.6 mm 20.3° 1004.4 hPa 3.4 m/s 25.6 mm
21:00 17.9° 1004.1 hPa 4.7 m/s 26.1 mm 17.9° 1004.1 hPa 4.7 m/s 26.1 mm
 05:54     20:54    Daglengte: 15:00 Maandag 22 Aug
03:00 16.8° 1004.6 hPa 3.6 m/s 26.3 mm 16.8° 1004.6 hPa 3.6 m/s 26.3 mm
09:00 17.2° 1008.3 hPa 5.0 m/s 26.5 mm 17.2° 1008.3 hPa 5.0 m/s 26.5 mm
15:00 20.9° 1012.3 hPa 4.7 m/s 26.5 mm 20.9° 1012.3 hPa 4.7 m/s 26.5 mm
21:00 16.7° 1014.7 hPa 4.3 m/s 26.5 mm 16.7° 1014.7 hPa 4.3 m/s 26.5 mm
 05:56     20:51    Daglengte: 14:55 Dinsdag 23 Aug
03:00 14.5° 1016.3 hPa 1.0 m/s 26.5 mm 14.5° 1016.3 hPa 1.0 m/s 26.5 mm
09:00 17.5° 1016.1 hPa 3.8 m/s 26.5 mm 17.5° 1016.1 hPa 3.8 m/s 26.5 mm
15:00 21.4° 1014.5 hPa 4.7 m/s 26.5 mm 21.4° 1014.5 hPa 4.7 m/s 26.5 mm
21:00 19.8° 1013.2 hPa 5.1 m/s 26.5 mm 19.8° 1013.2 hPa 5.1 m/s 26.5 mm
 05:58     20:48    Daglengte: 14:50 Woensdag 24 Aug
03:00 18.3° 1012.8 hPa 5.2 m/s 26.6 mm 18.3° 1012.8 hPa 5.2 m/s 26.6 mm
09:00 17.9° 1012.0 hPa 5.2 m/s 27.8 mm 17.9° 1012.0 hPa 5.2 m/s 27.8 mm
15:00 20.9° 1011.6 hPa 4.7 m/s 28.2 mm 20.9° 1011.6 hPa 4.7 m/s 28.2 mm
21:00 17.0° 1016.1 hPa 2.1 m/s 0.4 mm
 06:01     20:45    Daglengte: 14:44 Donderdag 25 Aug
03:00 15.3° 1016.7 hPa 1.4 m/s 0.1 mm
09:00 16.6° 1016.6 hPa 1.3 m/s 0.6 mm
15:00 19.6° 1016.6 hPa 2.9 m/s 0.4 mm
21:00 17.1° 1016.9 hPa 1.8 m/s 0.3 mm
 06:03     20:42    Daglengte: 14:39 Vrijdag 26 Aug
03:00 15.3° 1017.2 hPa 0.9 m/s 0.6 mm
09:00 16.3° 1017.5 hPa 1.6 m/s 0.7 mm
15:00 19.0° 1017.9 hPa 2.4 m/s 0.4 mm
21:00 16.8° 1018.0 hPa 1.7 m/s 0.3 mm
 06:06     20:39    Daglengte: 14:33 Zaterdag 27 Aug
03:00 14.7° 1018.4 hPa 1.2 m/s 0.2 mm
09:00 15.5° 1018.2 hPa 0.6 m/s 0.1 mm
15:00 18.2° 1017.6 hPa 1.1 m/s 0.2 mm
21:00 16.0° 1017.0 hPa 1.2 m/s 0.6 mm
 06:08     20:36    Daglengte: 14:28 Zondag 28 Aug
03:00 14.4° 1017.0 hPa 1.0 m/s 0.2 mm
09:00 15.1° 1016.7 hPa 0.9 m/s 0.4 mm
15:00 17.9° 1016.4 hPa 0.4 m/s 0.6 mm
21:00 15.7° 1016.3 hPa 1.3 m/s 0.8 mm
 06:10     20:33    Daglengte: 14:23 Maandag 29 Aug
03:00 13.7° 1016.7 hPa 1.4 m/s 0.2 mm
09:00 14.7° 1016.9 hPa 1.0 m/s 0.0 mm
15:00 17.6° 1016.8 hPa 0.5 m/s 0.1 mm
21:00 15.5° 1016.8 hPa 1.1 m/s 0.5 mm
FMI Hirlam - 7.5 km EWN WRFDA - 12 km DWD ICON - 7 km GFS - 25 km Basiskaart






























































Updatetijd (Europe/Amsterdam) Resolutie Lengte Stap
FMI Hirlam 20:00, 02:00, 08:00, 14:00 7.5 km 49h 1h
EWN WRFDA 16:30, 22:30, 04:30, 10:30 12 km 73h 1h
DWD ICON 18:00, 00:00, 06:00, 12:00 7 km 75h 1h
GFS 19:45, 01:45, 07:45, 13:45 25 km 237h 3h
30+ mm
25-30 mm
20-25 mm
15-20 mm
10-15 mm
6-10 mm
4-6 mm
2-4 mm
1-2 mm
0.5-1 mm
0.2-0.5 mm
0.1-0.2 mm
30+ mm
25-30 mm
20-25 mm
15-20 mm
10-15 mm
6-10 mm
4-6 mm
2-4 mm
1-2 mm
0.5-1 mm
0.2-0.5 mm
0.1-0.2 mm
Sneeuwval
Natte sneeuw
Hagel
Vorst
30+ mm
25-30 mm
20-25 mm
15-20 mm
10-15 mm
6-10 mm
4-6 mm
2-4 mm
1-2 mm
0.5-1 mm
0.2-0.5 mm
0.1-0.2 mm
Sneeuwval
Natte sneeuw
Hagel
Vorst
Onweer
50 mm
40 mm
30 mm
26 mm
22 mm
18 mm
14 mm
10 mm
9 mm
8 mm
7 mm
6 mm
5 mm
4.5 mm
4 mm
3.5 mm
3 mm
2.5 mm
2 mm
1.5 mm
1 mm
0.8 mm
0.6 mm
0.4 mm
0.2 mm
0.05 mm
35°
30°
25°
20°
15°
10°
-5°
-10°
-15°
-20°
-25°
-30°
-35°
33> m/s
29 m/s
25 m/s
21 m/s
17 m/s
14 m/s
11 m/s
8 m/s
5 m/s
3 m/s
0 m/s
2600 J/kg
2400 J/kg
2200 J/kg
2000 J/kg
1800 J/kg
1600 J/kg
1400 J/kg
1200 J/kg
1000 J/kg
800 J/kg
600 J/kg
400 J/kg
200 J/kg
70 dBZ
65 dBZ
60 dBZ
55 dBZ
50 dBZ
45 dBZ
40 dBZ
35 dBZ
30 dBZ
25 dBZ
20 dBZ
15 dBZ
10 dBZ
5 dBZ
-1 K
-2 K
-3 K
-4 K
-5 K
-6 K
-7 K
-8 K
-9 K
950 m²/s²
900 m²/s²
850 m²/s²
800 m²/s²
750 m²/s²
700 m²/s²
650 m²/s²
600 m²/s²
550 m²/s²
500 m²/s²
450 m²/s²
400 m²/s²
350 m²/s²
300 m²/s²
250 m²/s²
200 m²/s²
150 m²/s²
100 m²/s²
46 m/s
44 m/s
42 m/s
40 m/s
38 m/s
36 m/s
34 m/s
32 m/s
30 m/s
28 m/s
26 m/s
24 m/s
22 m/s
20 m/s
16 m/s
12 m/s
8 m/s
4 m/s
30 m/s
28 m/s
26 m/s
24 m/s
22 m/s
20 m/s
18 m/s
16 m/s
14 m/s
12 m/s
10 m/s
8 m/s
6 m/s
4 m/s
2 m/s
3.0
2.8
2.6
2.4
2.2
2.0
1.8
1.6
1.4
1.2
1.0
0.8
0.6
0.4
0.2
15
14
13
12
11
10
9
8
7
6
5
4
3
2
1
90%
80%
70%
60%
50%
40%
30%
20%
10%
42
40
38
36
34
32
30
28
26
24
22
20
18
16
14
12
90+ cm
80-90 cm
70-80 cm
60-70 cm
50-60 cm
40-50 cm
30-40 cm
20-30 cm
10-20 cm
1-10 cm
Sneeuwval
Natte sneeuw
Regen
>120 mm
115 mm
110 mm
105 mm
100 mm
95 mm
90 mm
85 mm
80 mm
75 mm
70 mm
65 mm
60 mm
55 mm
50 mm
45 mm
45 mm
40 mm
35 mm
30 mm
25 mm
20 mm
15 mm
10 mm
5 mm
0.1 mm
960 hPa
880 hPa
800 hPa
720 hPa
640 hPa
560 hPa
584 gpdm
568 gpdm
552 gpdm
536 gpdm
520 gpdm
504 gpdm
488 gpdm
Extreem zwaar Noodweer Kans op onweer
15% 15% 5% 50% 15%

Dag




Kaart